Location: *
(51.8167°N, 12.5000°E)
Time: 05:14:33
(UTC+00:00)

COSMOS 2428 - Pass Details

Date: 16 September 2019
Orbit: 845 x 856 km, 70.9° (Epoch: 22 October)

Event Time Altitude Azimuth Distance (km) Brightness Sun altitude
Rises 19:02:03 0° 326° (NW) 3,418 6.9 -15.5°
Reaches altitude 10° 19:04:35 10° 320° (NW) 2,478 6.2 -15.9°
Maximum altitude 19:09:56 44° 250° (WSW) 1,155 3.7 -16.6°
Drops below altitude 10° 19:15:16 10° 180° (S) 2,465 4.8 -17.3°
Enters shadow 19:16:11 - 177° (S) 2,794 5.1 -17.5°
